User: anonymous   Login
Location: Chippewa Lake
(41.0698°N, 81.9010°W)
Time: 02:53:35
(UTC+00:00)
Language:

DTUSAT 2 - Orbit

View from above orbital plane
View from above orbital plane
View from above satellite
View from above satellite

Ground track
Ground track

The orbit data is extracted from the following two-line orbital elements,

1 40030U 14033W   21332.24778626  .00000703  00000-0  80293-4 0  9997
2 40030  97.9241 259.5086 0011938   3.4635 356.6663 14.89194553403695
Epoch (UTC): 28 November 2021 05:56:48
Eccentricity: 0.0011938
inclination: 97.9241°
perigee height: 592 km
apogee height: 609 km
right ascension of ascending node: 259.5086°
argument of perigee: 3.4635°
revolutions per day: 14.89194553
mean anomaly at epoch: 356.6663°
orbit number at epoch: 40369

The dashed part of the orbit path shows where the satellite is in the earth's shadow,  

DLR